Regional Weather Roundup
Issued by NWS Goodland, KS

Home | Current Version | Previous Version | Graphics & Text | Print | Product List | Glossary On
Versions: 1 2 3 4 5 6 7 8 9 10 11 12 13 14 15 16 17 18 19 20 21 22 23 24 25 26 27 28 29 30 31 32 33 34 35 36 37 38 39 40 41 42 43 44 45 46 47 48 49 50
000
ASUS43 KGLD 121208
RWRGLD

GOODLAND FORECAST AREA HOURLY WEATHER ROUNDUP
NATIONAL WEATHER SERVICE GOODLAND KS
600 AM MDT SAT JUL 12 2014

...OFFICIAL OBSERVATIONS...

CITY           SKY/WX    TMP DP  RH WIND       PRES   REMARKS
GOODLAND KS    MOCLDY    63  61  93 NW6       30.08S
HILL CITY KS   MOCLDY    69  61  75 NW3       30.02R
IMPERIAL NEB   CLOUDY    69  66  90 NW8       30.07R
MCCOOK NEB     MOCLDY    71  69  93 NW8       30.01R FOG
AKRON CO       CLOUDY    63  62  97 N12       30.17S
BURLINGTON CO  MOCLDY    65  63  93 NW8       30.12R
LIMON CO       PTCLDY    61  60  97 W7        30.21S
$$

...UNOFFICIAL OBSERVATIONS...

CITY           SKY/WX    TMP DP  RH WIND       PRES   REMARKS
COLBY KS       CLEAR     64  63  94 SW5       30.06S
GOVE KS          N/A     71  32  23 CALM        N/A
LENORA KS        N/A     67  32  27 MISG        N/A
NORTON KS      CLEAR     70  55  60 S8        30.00S
OBERLIN KS     FAIR      66  61  82 SW6       30.01S
SHARON SPRINGS   N/A     65  58  77 CALM        N/A
ST FRANCIS KS  MOCLDY    68  63  83 CALM      30.07R
WAKEENEY KS      N/A     70  58  64 MISG        N/A
KIT CARSON CO    N/A     66  61  83 N8          N/A
WRAY CO        CLOUDY   N/A N/A N/A NW12      30.11R
YUMA CO          N/A     66  64  92 N6          N/A
$$



USA.gov is the U.S. government's official web portal to all federal, state and local government web resources and services.